Wind_Speed
19 19 19 18 18 18 17 17 17 17 17 17 17 18 19 19 20 20 20 20 21 21 21 21 21 20 21 21 22 22 24 26 28 29 30 30 31 32 33 35 36 37
19 19 18 18 18 18 17 17 17 17 17 17 18 19 19 20 20 20 21 21 22 22 22 21 21 21 22 22 22 24 26 28 29 29 30 31 32 33 34 36 37 38
21 20 19 18 18 18 18 18 18 18 18 18 19 19 20 20 21 21 21 22 22 22 21 21 22 23 23 23 24 26 27 28 29 30 31 32 33 34 35 37 38 38
23 22 21 19 18 18 19 18 18 18 19 19 20 20 20 20 20 21 21 22 21 21 21 22 23 24 24 24 26 27 28 29 30 31 32 33 34 35 36 37 38 39
24 24 23 21 19 19 19 19 19 20 20 20 20 20 20 20 20 21 21 21 21 22 23 23 24 24 25 26 27 28 29 30 32 33 33 34 34 35 37 38 39 39
25 25 24 22 20 20 20 20 20 20 20 20 20 20 20 20 21 21 22 22 22 23 23 24 24 25 26 27 28 29 30 32 33 34 35 35 35 36 37 38 39 40
25 24 24 22 21 20 20 20 20 20 20 20 20 20 21 21 22 22 22 23 23 23 23 24 25 26 28 29 30 31 32 34 35 35 36 36 36 36 37 38 39 40
23 23 22 22 21 21 21 20 20 20 20 21 21 22 23 23 23 23 23 22 22 23 24 26 27 29 30 31 31 33 34 35 36 37 37 36 36 37 37 38 39 40
22 21 21 22 22 22 22 21 20 21 21 22 23 24 25 25 24 24 23 23 24 24 26 27 29 30 31 32 33 35 36 36 37 37 37 36 37 37 38 38 39 40
22 22 22 22 23 23 23 22 22 22 23 23 24 26 26 26 25 25 24 25 25 26 28 29 31 32 32 33 35 36 37 37 38 37 37 36 37 37 38 39 40 40
23 23 23 23 24 24 24 24 23 24 24 25 26 27 28 28 27 26 26 27 27 28 30 31 32 32 33 34 35 36 37 38 38 37 36 36 37 37 38 39 40 40
24 24 24 24 25 25 25 25 25 25 26 27 28 29 29 29 28 28 28 29 29 31 32 32 32 33 34 35 35 36 37 38 37 36 36 37 37 38 39 39 40 40
23 24 24 25 25 26 26 26 26 26 27 28 29 30 30 30 30 31 31 31 32 33 33 32 33 33 34 35 36 37 37 36 36 36 36 37 37 38 39 40 40 41
22 22 23 23 24 24 26 27 27 27 28 29 29 30 31 32 32 32 32 33 33 34 34 33 34 34 34 35 36 35 35 35 35 36 37 37 38 39 39 40 40 41
22 22 21 22 22 23 25 27 28 27 27 29 30 31 32 32 33 34 34 34 34 34 34 34 33 33 34 35 34 34 34 35 35 36 37 38 39 39 40 40 40 41
22 22 22 22 22 23 24 26 28 28 28 28 30 31 32 33 34 35 35 35 35 35 34 33 32 33 33 34 34 34 35 35 36 37 38 39 40 40 40 40 41 41
23 23 23 23 23 24 25 26 27 28 28 28 29 31 32 33 35 37 39 39 36 33 32 31 32 32 33 33 34 34 34 35 36 37 38 40 40 40 40 41 41 41
24 24 24 24 24 25 26 27 28 29 29 29 30 31 32 34 36 38 38 36 32 29 29 30 31 32 33 34 33 33 34 34 35 37 39 41 41 41 42 42 41 40
24 25 25 25 25 26 27 28 29 29 29 29 31 32 32 34 36 35 32 30 28 28 29 31 32 33 33 33 33 33 33 34 35 36 39 41 43 43 42 40 39 39
25 26 26 26 26 26 27 28 28 29 29 29 31 32 32 34 34 32 31 31 31 31 31 32 33 33 33 33 33 33 34 34 35 36 38 40 42 40 37 37 38 40
25 25 25 26 26 27 27 28 28 29 29 30 30 31 32 33 32 31 31 32 32 32 33 34 34 34 33 33 33 33 34 34 35 36 36 37 37 36 35 38 40 41
24 25 25 26 27 28 28 28 28 29 29 30 31 32 32 32 32 33 33 33 33 34 34 34 34 34 33 33 33 33 33 34 35 35 35 34 35 36 37 39 40 41
24 25 26 27 27 28 28 29 29 29 30 31 32 33 32 32 33 34 34 34 34 34 34 34 34 34 33 33 33 33 33 34 35 34 34 34 35 36 38 39 40 42
26 26 27 28 28 29 29 30 30 30 31 32 33 33 33 33 34 35 35 35 35 35 35 35 34 33 33 33 33 33 34 34 34 33 33 34 35 36 38 39 40 41
28 29 29 30 30 30 31 31 31 31 32 34 35 35 34 34 36 36 36 36 36 36 36 35 34 33 32 32 33 34 34 34 33 33 32 33 35 36 38 39 40 41
30 31 31 31 32 32 32 33 33 34 34 35 36 35 35 35 36 37 37 37 36 36 35 34 33 32 32 33 34 34 34 33 32 31 31 33 35 37 38 38 39 41
Wind_Direction
241 242 244 245 248 250 252 254 254 253 252 251 252 254 256 258 259 261 264 266 268 271 273 275 277 277 277 280 286 292 297 300 302 304 307 309 312 316 319 322 324 325
242 245 245 245 248 251 253 254 254 253 252 252 254 256 257 259 261 263 266 269 271 273 274 275 274 274 277 283 289 294 297 300 302 306 309 312 314 317 319 322 323 324
245 246 246 245 247 251 253 254 254 254 254 254 255 257 259 261 263 266 269 272 273 274 273 272 272 275 280 286 291 294 297 300 304 309 311 313 314 316 318 321 322 323
247 247 246 245 248 252 253 253 253 254 254 256 256 257 259 262 265 269 271 272 272 272 271 272 275 279 284 289 291 294 298 303 307 310 312 313 313 315 317 319 320 320
247 247 246 245 248 250 250 251 252 254 255 255 256 257 260 263 267 269 270 270 270 270 272 275 278 283 286 288 291 296 301 305 308 310 311 312 312 313 315 317 318 318
247 247 244 243 245 247 248 249 251 253 254 255 256 257 260 264 267 268 268 268 269 272 274 277 280 283 286 288 292 297 301 304 307 310 311 311 311 311 313 315 316 316
247 245 241 239 242 245 246 249 251 253 254 256 257 259 262 265 266 267 267 269 271 274 276 279 282 284 286 288 292 296 299 303 307 309 309 308 309 310 311 313 314 314
244 241 237 238 241 243 246 249 251 253 255 257 258 260 263 265 266 266 268 271 274 277 279 281 283 285 286 289 292 295 299 303 306 306 306 306 307 309 310 311 312 313
239 237 237 240 242 245 248 251 253 255 257 258 259 261 263 265 265 267 269 273 276 278 280 283 285 286 287 289 292 295 299 302 304 304 304 305 307 308 309 310 311 311
237 237 241 243 245 247 249 252 255 257 258 258 260 262 264 265 266 268 271 274 277 279 282 285 287 288 289 290 293 296 299 301 302 302 303 305 306 307 308 309 309 310
238 239 242 245 247 248 250 254 258 259 260 260 261 263 265 266 268 270 273 275 277 280 284 287 289 290 291 293 295 297 299 300 300 301 304 305 305 306 306 307 308 308
243 243 245 247 248 250 254 258 261 262 262 262 264 265 267 269 271 272 274 276 278 281 284 288 290 292 295 296 297 298 298 298 300 302 305 305 304 305 305 306 306 306
249 249 249 250 251 253 257 260 262 263 263 264 266 268 270 271 272 273 275 276 279 281 284 288 291 295 297 297 297 297 297 299 302 304 305 304 304 304 304 304 304 304
253 254 253 253 254 255 257 259 260 261 262 264 267 270 271 272 272 273 275 276 278 280 283 288 292 296 297 296 295 296 298 302 304 305 304 304 304 303 303 302 302 302
255 256 257 258 258 258 258 260 260 260 263 265 268 271 272 273 274 275 276 276 276 279 283 287 292 295 294 294 295 299 303 305 305 305 305 304 303 302 301 300 300 301
257 259 261 262 262 261 262 265 264 263 264 267 270 272 275 276 277 277 276 275 275 278 282 287 291 293 293 295 299 303 305 305 305 305 305 304 302 300 299 298 299 300
258 261 262 263 264 264 266 268 268 269 270 271 273 276 278 279 279 280 278 275 275 278 282 288 293 294 295 299 302 304 305 305 305 306 305 303 301 299 298 297 297 300
258 260 262 262 263 266 268 268 268 271 274 275 275 278 280 282 284 286 283 279 278 282 287 292 295 296 298 301 303 303 304 304 305 305 302 301 300 299 298 296 296 300
257 259 261 262 263 266 268 267 267 270 273 274 275 278 280 282 286 289 289 289 291 294 295 296 297 298 300 302 302 303 303 304 304 302 300 300 299 297 297 298 300 303
258 260 261 262 263 265 267 268 270 272 273 274 276 278 280 282 284 286 289 294 298 297 297 297 298 300 301 302 303 304 303 304 304 302 302 303 300 298 301 306 307 307
260 261 263 265 266 268 271 272 274 276 277 277 277 278 280 283 285 286 289 292 295 295 296 298 299 301 303 303 304 304 303 303 303 303 303 303 302 304 309 310 309 308
262 264 267 269 271 274 277 278 279 280 280 280 280 280 281 283 285 287 289 291 293 295 297 299 301 302 303 303 303 303 303 303 302 302 301 301 304 308 310 309 309 310
266 269 272 274 276 279 281 282 283 283 282 282 282 283 284 285 285 287 290 292 294 297 298 300 301 302 302 303 303 303 303 303 302 301 300 302 306 308 308 308 308 309
271 273 276 278 280 282 283 284 285 283 282 282 283 284 285 286 287 289 292 294 297 298 299 300 301 301 302 302 303 303 303 303 301 299 300 303 306 307 306 307 308 309
274 276 277 280 281 282 283 284 283 281 280 281 283 285 287 288 289 290 293 295 296 297 298 299 300 301 301 302 302 303 303 302 300 299 301 304 305 304 304 306 307 308
275 276 277 278 279 281 282 282 281 280 280 282 284 286 288 287 288 290 293 294 294 295 296 298 299 300 301 302 303 304 303 301 300 300 302 302 302 302 303 305 307 307
Height
5808 5808 5809 5809 5809 5809 5810 5810 5811 5811 5812 5812 5813 5813 5813 5814 5814 5814 5814 5813 5813 5813 5812 5812 5811 5811 5811 5810 5809 5808 5807 5805 5804 5802 5801 5799 5796 5794 5791 5788 5786 5784
5806 5807 5807 5807 5807 5808 5808 5808 5809 5810 5810 5811 5811 5811 5812 5812 5812 5812 5811 5811 5811 5810 5810 5810 5809 5809 5808 5807 5807 5805 5804 5803 5801 5799 5797 5795 5793 5790 5788 5785 5783 5781
5804 5805 5805 5805 5805 5806 5806 5807 5807 5808 5809 5809 5809 5809 5809 5809 5809 5809 5809 5809 5808 5808 5808 5808 5807 5807 5806 5805 5804 5803 5802 5800 5798 5796 5794 5792 5789 5787 5785 5782 5780 5777
5802 5803 5803 5803 5803 5804 5804 5805 5806 5806 5807 5807 5807 5807 5807 5807 5807 5807 5806 5806 5806 5806 5806 5805 5805 5804 5803 5803 5802 5800 5799 5797 5795 5793 5791 5788 5786 5784 5782 5779 5777 5774
5800 5800 5801 5801 5801 5802 5802 5803 5804 5804 5805 5805 5805 5805 5805 5805 5805 5804 5804 5804 5804 5804 5803 5803 5802 5802 5801 5800 5799 5797 5796 5794 5792 5790 5787 5785 5783 5781 5778 5776 5774 5771
5797 5798 5798 5799 5799 5799 5800 5801 5802 5802 5803 5803 5803 5803 5802 5802 5802 5802 5802 5802 5801 5801 5801 5800 5800 5799 5798 5797 5796 5794 5792 5790 5788 5786 5784 5782 5780 5777 5775 5773 5771 5768
5795 5795 5796 5796 5797 5797 5798 5799 5800 5800 5800 5801 5800 5800 5800 5800 5800 5800 5800 5799 5799 5798 5798 5797 5797 5796 5795 5794 5792 5790 5789 5787 5785 5782 5781 5779 5777 5774 5772 5770 5767 5765
5792 5793 5793 5794 5794 5795 5796 5797 5797 5798 5798 5798 5798 5798 5798 5798 5797 5797 5797 5797 5796 5796 5795 5794 5794 5793 5791 5790 5788 5787 5785 5783 5781 5779 5777 5775 5773 5771 5768 5766 5764 5761
5790 5791 5791 5792 5792 5793 5794 5795 5795 5795 5795 5796 5795 5795 5795 5795 5795 5794 5794 5794 5793 5793 5792 5791 5790 5789 5788 5786 5785 5783 5782 5780 5778 5776 5774 5772 5769 5767 5765 5762 5760 5758
5788 5788 5789 5789 5790 5790 5791 5792 5793 5793 5793 5793 5793 5792 5792 5792 5792 5791 5791 5790 5790 5789 5789 5788 5787 5785 5784 5783 5781 5780 5778 5776 5774 5772 5770 5768 5766 5763 5761 5758 5756 5754
5785 5786 5786 5787 5787 5788 5789 5789 5790 5790 5790 5790 5790 5789 5789 5789 5789 5789 5788 5787 5787 5786 5785 5784 5783 5782 5780 5779 5778 5776 5774 5773 5771 5769 5766 5764 5762 5759 5757 5754 5752 5750
5783 5783 5784 5784 5785 5785 5786 5786 5787 5787 5787 5787 5787 5787 5787 5786 5786 5785 5785 5784 5784 5783 5782 5781 5780 5778 5777 5775 5774 5772 5771 5769 5767 5765 5762 5760 5757 5755 5753 5750 5748 5746
5781 5781 5782 5782 5782 5783 5783 5783 5784 5785 5785 5784 5784 5784 5784 5783 5783 5782 5781 5781 5780 5779 5778 5777 5776 5774 5773 5771 5770 5768 5767 5765 5763 5760 5758 5755 5753 5751 5748 5746 5744 5741
5778 5779 5779 5780 5780 5780 5780 5780 5781 5781 5781 5781 5781 5780 5779 5779 5778 5778 5777 5776 5776 5775 5774 5773 5772 5770 5769 5767 5766 5764 5763 5760 5758 5756 5753 5751 5749 5746 5744 5742 5739 5737
5776 5776 5777 5777 5777 5777 5777 5776 5777 5778 5778 5777 5777 5776 5775 5775 5774 5774 5773 5772 5771 5770 5770 5769 5768 5766 5765 5764 5762 5760 5758 5756 5754 5751 5749 5747 5744 5742 5740 5737 5735 5733
5773 5774 5774 5774 5774 5774 5774 5773 5773 5774 5774 5774 5773 5773 5772 5771 5770 5769 5768 5767 5767 5766 5766 5765 5764 5763 5761 5760 5758 5756 5754 5751 5749 5747 5745 5743 5740 5738 5735 5733 5731 5729
5770 5771 5771 5771 5771 5771 5770 5770 5769 5769 5770 5770 5770 5769 5768 5768 5767 5765 5764 5763 5763 5762 5762 5761 5760 5759 5757 5756 5754 5751 5749 5747 5745 5743 5741 5738 5736 5734 5731 5729 5727 5725
5767 5767 5767 5767 5767 5767 5766 5766 5767 5767 5767 5766 5766 5765 5765 5764 5762 5761 5759 5759 5759 5759 5758 5757 5755 5754 5753 5751 5749 5747 5745 5743 5741 5739 5737 5734 5732 5730 5727 5725 5723 5721
5764 5764 5763 5763 5764 5764 5763 5763 5764 5763 5763 5763 5762 5761 5761 5760 5759 5757 5756 5755 5755 5754 5753 5752 5751 5750 5748 5746 5744 5742 5740 5739 5737 5735 5733 5730 5728 5725 5723 5721 5719 5717
5760 5760 5760 5760 5760 5760 5760 5760 5760 5759 5759 5759 5758 5758 5757 5756 5755 5754 5752 5751 5751 5750 5749 5748 5747 5745 5743 5742 5740 5738 5736 5735 5733 5731 5728 5726 5723 5721 5719 5717 5715 5712
5756 5756 5756 5756 5756 5756 5756 5756 5756 5756 5756 5755 5755 5754 5753 5753 5752 5750 5749 5748 5747 5746 5745 5744 5742 5741 5739 5737 5735 5734 5732 5730 5729 5727 5724 5722 5720 5717 5715 5713 5711 5708
5752 5753 5753 5753 5753 5752 5753 5753 5752 5752 5752 5752 5751 5750 5750 5749 5747 5746 5745 5744 5743 5742 5741 5739 5738 5736 5735 5733 5731 5730 5728 5726 5724 5723 5721 5718 5716 5714 5712 5709 5707 5704
5749 5749 5749 5749 5749 5749 5749 5749 5749 5749 5748 5748 5747 5747 5746 5745 5743 5742 5741 5740 5739 5738 5736 5735 5734 5732 5730 5729 5727 5726 5724 5722 5720 5718 5717 5714 5712 5710 5708 5706 5703 5701
5745 5745 5745 5745 5745 5745 5745 5745 5746 5745 5745 5744 5744 5743 5742 5741 5739 5738 5737 5736 5735 5733 5732 5731 5729 5728 5726 5725 5723 5722 5720 5718 5716 5714 5712 5710 5708 5706 5704 5702 5700 5698
5741 5741 5741 5741 5742 5742 5742 5742 5742 5742 5741 5740 5740 5739 5738 5737 5735 5734 5733 5732 5730 5729 5728 5727 5725 5724 5722 5721 5719 5718 5716 5714 5712 5710 5709 5707 5705 5703 5701 5699 5697 5694
5737 5737 5737 5737 5737 5737 5738 5738 5738 5738 5737 5736 5736 5735 5733 5732 5731 5730 5729 5728 5726 5725 5724 5723 5721 5720 5718 5716 5715 5713 5712 5710 5708 5707 5705 5703 5701 5699 5697 5695 5693 5691